IZ2XSB-13 Weather Reports


Display with metric or nautical units.
time (UTC)temp
F
wind
direction
speed
MPH
gust
MPH
rain 1hr
in
rain 24hr
in
rain mn
in
humidity
%
barometer
mb
20260507005315 49 301 0.0 4.0 0.00 7.28 0.01 88 1012.5
20260507004815 49 290 1.0 4.0 0.00 7.28 0.01 88 1012.4
20260507004315 49 254 2.0 5.0 0.00 7.28 0.01 87 1012.6
20260507003815 49 280 4.0 7.0 0.00 7.28 0.01 87 1012.6
20260507003315 49 262 4.0 5.0 0.00 7.28 0.01 87 1012.7
20260507002831 49 285 3.0 9.0 0.04 7.28 0.01 86 1012.7
20260507002329 49 263 6.0 8.0 0.04 7.28 0.01 87 1012.7
20260507001829 49 270 6.0 8.0 0.04 7.28 0.01 88 1012.7
20260507001330 49 272 4.0 5.0 0.04 7.32 0.01 88 1012.8
20260507000829 49 239 4.0 5.0 0.04 7.32 0.01 87 1012.8
20260507000329 49 262 2.0 3.0 0.04 7.32 0.01 88 1012.8
20260506235829 49 344 1.0 3.0 0.04 7.32 0.01 87 1012.7
20260506235343 49 305 1.0 2.0 0.04 7.32 0.01 87 1012.8
20260506234820 49 305 0.0 3.0 0.04 7.32 0.01 87 1012.7
20260506234318 49 315 2.0 3.0 0.04 7.32 0.01 87 1012.6
20260506233818 49 250 2.0 4.0 0.04 7.32 0.01 87 1012.7
20260506233317 49 252 2.0 6.0 0.04 7.32 0.01 86 1012.7
20260506232816 49 261 2.0 4.0 0.00 7.28 0.00 86 1012.6
20260506232336 49 234 2.0 6.0 0.00 7.28 0.00 87 1012.7
20260506231814 49 282 3.0 6.0 0.00 7.28 0.00 87 1012.8
20260506231332 49 293 2.0 3.0 0.00 7.28 0.00 87 1012.8
20260506230830 49 331 0.0 3.0 0.00 7.28 0.00 86 1012.7
20260506230326 49 313 1.0 3.0 0.00 7.28 0.00 88 1012.6
20260506225844 49 264 2.0 4.0 0.00 7.28 0.00 87 1012.6
20260506225324 49 254 3.0 5.0 0.00 7.28 0.00 87 1012.7
20260506224824 49 277 3.0 7.0 0.00 7.28 0.00 86 1012.6
20260506224322 49 260 3.0 9.0 0.00 7.28 0.00 87 1012.6
20260506223821 48 271 6.0 8.0 0.04 7.28 0.00 88 1012.7
20260506223320 48 275 3.0 4.0 0.04 7.28 0.00 88 1012.7
20260506222816 48 303 2.0 4.0 0.04 7.28 0.00 88 1012.8
20260506222314 49 321 3.0 4.0 0.08 7.28 0.00 88 1012.7
20260506221832 49 269 2.0 4.0 0.12 7.28 0.00 88 1012.8
20260506221313 49 294 3.0 4.0 0.12 7.91 1.46 88 1012.8
20260506220813 49 292 2.0 4.0 0.12 7.91 1.46 88 1012.8
20260506220312 49 229 3.0 4.0 0.12 7.91 1.46 87 1012.8
20260506215832 49 303 2.0 4.0 0.12 7.91 1.46 85 1012.8
20260506215331 49 329 1.0 2.0 0.12 7.91 1.46 85 1012.9
20260506214850 49 339 1.0 5.0 0.12 7.91 1.46 85 1012.9
20260506214329 49 300 3.0 4.0 0.12 7.91 1.46 87 1012.8
20260506213848 49 289 1.0 4.0 0.08 7.87 1.45 88 1012.9
20260506213326 49 279 0.0 4.0 0.08 7.87 1.45 87 1012.8
20260506212825 49 258 3.0 5.0 0.08 7.87 1.45 88 1013.0
20260506212325 50 280 3.0 8.0 0.04 7.83 1.44 88 1012.8
20260506211844 49 290 6.0 8.0 0.00 7.80 1.43 87 1012.9
20260506211321 50 261 6.0 8.0 0.00 7.83 1.43 88 1012.9
20260506210821 50 263 5.0 7.0 0.00 7.83 1.43 87 1012.8
20260506210322 50 282 4.0 7.0 0.00 7.83 1.43 87 1012.8
20260506205820 50 300 4.0 7.0 0.00 7.83 1.43 86 1012.9
20260506205320 50 84 3.0 5.0 0.00 7.83 1.43 84 1012.8
20260506204820 50 266 2.0 5.0 0.00 7.83 1.43 85 1012.8
20260506204320 50 259 3.0 8.0 0.00 7.83 1.43 84 1012.9
20260506203820 50 355 2.0 9.0 0.00 7.83 1.43 83 1012.9
20260506203318 50 5 4.0 10.0 0.00 7.83 1.43 82 1012.8
20260506202819 50 38 3.0 12.0 0.00 7.83 1.43 84 1012.8
20260506202319 50 275 1.0 3.0 0.00 7.83 1.43 88 1012.8
20260506201819 50 229 1.0 5.0 0.00 7.83 1.43 88 1012.7
20260506201319 50 224 4.0 6.0 0.00 7.87 1.43 88 1012.5
20260506200838 51 90 0.0 3.0 0.00 7.87 1.43 89 1012.6
20260506200317 51 90 2.0 4.0 0.00 7.87 1.43 89 1012.6
20260506195816 51 33 2.0 4.0 0.00 7.87 1.43 89 1012.6
20260506195336 51 232 1.0 4.0 0.00 7.87 1.43 87 1012.5
20260506194816 51 80 2.0 6.0 0.00 7.87 1.43 87 1012.3
20260506194316 51 298 3.0 6.0 0.00 7.87 1.43 86 1012.4
20260506193814 51 17 3.0 6.0 0.00 7.87 1.43 85 1012.2
20260506193312 51 53 2.0 6.0 0.00 7.87 1.43 86 1012.0
20260506192814 51 294 3.0 5.0 0.00 7.87 1.43 86 1012.1
20260506192332 51 285 3.0 10.0 0.00 7.87 1.43 85 1012.1
20260506191830 50 229 5.0 12.0 0.00 7.87 1.43 85 1012.1
20260506191329 50 269 7.0 12.0 0.00 7.87 1.43 87 1012.0
20260506190830 50 219 4.0 8.0 0.00 7.87 1.43 85 1011.9
20260506190326 51 26 3.0 6.0 0.00 7.87 1.43 84 1012.0
20260506185828 51 360 2.0 9.0 0.04 7.87 1.43 83 1011.9
20260506185326 51 322 5.0 9.0 0.24 7.87 1.43 82 1011.7
20260506184826 51 281 3.0 9.0 0.35 7.87 1.43 82 1011.8
20260506184325 50 204 3.0 8.0 0.39 7.87 1.43 85 1011.8
20260506183842 50 329 4.0 8.0 0.59 7.87 1.43 89 1011.6
20260506183322 50 267 2.0 7.0 1.14 7.87 1.43 90 1011.6
20260506182822 50 95 1.0 7.0 1.61 7.87 1.43 90 1011.4
20260506182320 50 86 1.0 7.0 2.20 7.87 1.43 91 1011.4
20260506181817 49 258 5.0 7.0 2.24 7.87 1.43 91 1011.3
20260506181315 50 261 3.0 5.0 2.24 7.87 1.43 91 1011.2
20260506180833 50 273 4.0 6.0 2.28 7.87 1.43 90 1011.4
20260506180353 50 188 1.0 6.0 2.28 7.87 1.43 89 1011.3
20260506175851 50 26 2.0 11.0 2.24 7.83 1.43 89 1011.0
20260506175330 50 316 6.0 14.0 2.05 7.64 1.39 88 1011.0
20260506174848 49 265 10.0 14.0 1.89 7.48 1.35 88 1010.8
20260506174347 49 257 11.0 17.0 1.89 7.48 1.35 87 1010.7
20260506173823 49 255 11.0 17.0 1.65 7.24 1.31 86 1010.5
20260506173322 51 246 11.0 17.0 1.06 6.65 1.19 83 1010.4
20260506172842 54 14 9.0 17.0 0.55 6.14 1.09 76 1010.4
20260506172319 55 269 12.0 17.0 0.08 5.67 0.99 76 1009.9
20260506171817 55 226 4.0 8.0 0.04 5.63 0.98 77 1009.5
20260506171336 55 79 5.0 8.0 0.04 5.63 0.98 86 1009.1
20260506170817 55 306 5.0 8.0 0.00 5.59 0.98 88 1009.4
20260506170336 55 296 3.0 4.0 0.00 5.59 0.98 88 1009.1
20260506165814 55 189 2.0 3.0 0.00 5.59 0.98 87 1008.7
20260506165314 55 109 0.0 6.0 0.00 5.59 0.98 87 1008.5
20260506164832 55 90 1.0 8.0 0.00 5.59 0.98 86 1008.4
20260506164330 55 224 5.0 8.0 0.00 5.59 0.98 87 1008.6
20260506163829 55 42 2.0 5.0 0.00 5.59 0.98 86 1008.8
20260506163348 55 327 3.0 6.0 0.00 5.59 0.98 86 1008.8
20260506162825 55 238 4.0 6.0 0.00 5.59 0.98 87 1008.7
20260506162324 55 257 1.0 3.0 0.00 5.59 0.98 88 1008.6
20260506161823 55 184 2.0 4.0 0.00 5.59 0.98 85 1008.8
20260506161322 55 277 1.0 4.0 0.00 5.87 0.98 85 1008.8
20260506160822 55 252 2.0 4.0 0.00 5.87 0.98 87 1009.0
20260506160322 56 250 3.0 4.0 0.00 5.87 0.98 88 1009.1
20260506155823 56 166 2.0 4.0 0.00 5.87 0.98 86 1009.1
20260506155336 56 327 1.0 2.0 0.00 5.87 0.98 84 1008.9
20260506154834 56 285 0.0 3.0 0.00 5.87 0.98 86 1008.8
20260506154353 56 302 1.0 3.0 0.00 5.87 0.98 86 1008.8
20260506153830 56 194 1.0 3.0 0.00 5.87 0.98 86 1008.9
20260506153327 56 169 2.0 3.0 0.00 5.87 0.98 86 1009.0
20260506152825 56 83 1.0 3.0 0.00 5.87 0.98 86 1008.9
20260506152324 55 38 2.0 3.0 0.00 5.87 0.98 87 1009.0
20260506151821 55 107 1.0 3.0 0.00 5.87 0.98 87 1009.0
20260506151340 55 148 1.0 2.0 0.00 6.06 0.98 85 1009.1
20260506150819 55 232 0.0 3.0 0.00 6.06 0.98 86 1009.2
20260506150338 55 185 2.0 4.0 0.00 6.06 0.98 88 1009.4
20260506145814 55 175 1.0 4.0 0.00 6.06 0.98 87 1009.4
20260506145331 55 257 2.0 3.0 0.00 6.06 0.98 87 1009.4
20260506144832 55 205 2.0 4.0 0.00 6.06 0.98 87 1009.5
20260506144331 55 244 3.0 5.0 0.00 6.06 0.98 87 1009.6
20260506143829 55 165 2.0 5.0 0.00 6.06 0.98 88 1009.7
20260506143327 55 175 0.0 3.0 0.00 6.06 0.98 87 1009.8
20260506142825 54 109 2.0 3.0 0.00 6.06 0.98 88 1010.0
20260506142323 54 175 1.0 2.0 0.00 6.06 0.98 86 1010.0
20260506141821 54 175 1.0 3.0 0.00 6.06 0.98 87 1010.1
20260506141341 54 316 1.0 3.0 0.00 6.26 0.98 87 1010.1
20260506140837 54 167 0.0 2.0 0.00 6.26 0.98 89 1010.2
20260506140315 54 164 1.0 3.0 0.00 6.26 0.98 89 1010.2
20260506135816 53 190 2.0 3.0 0.00 6.26 0.98 90 1010.4
20260506135316 53 123 2.0 4.0 0.00 6.26 0.98 91 1010.3
20260506134815 53 171 3.0 4.0 0.00 6.26 0.98 92 1010.3
20260506134331 53 207 3.0 3.0 0.00 6.26 0.98 91 1010.4
20260506133829 52 193 3.0 3.0 0.00 6.26 0.98 93 1010.5
20260506133348 52 244 2.0 3.0 0.00 6.26 0.98 93 1010.4
20260506132825 52 239 3.0 4.0 0.00 6.26 0.98 93 1010.6
20260506132324 52 212 2.0 4.0 0.00 6.26 0.98 94 1010.6
20260506131824 52 144 2.0 3.0 0.00 6.26 0.98 95 1010.6
20260506131324 52 227 3.0 4.0 0.00 6.54 0.98 96 1010.5
20260506130822 52 205 3.0 4.0 0.00 6.54 0.98 96 1010.6
20260506130320 52 222 2.0 5.0 0.00 6.54 0.98 96 1010.5
20260506125817 51 220 2.0 5.0 0.00 6.54 0.98 96 1010.6
20260506125337 51 194 1.0 2.0 0.00 6.54 0.98 96 1010.6
20260506124815 51 306 0.0 2.0 0.00 6.54 0.98 96 1010.6
20260506124316 51 232 1.0 3.0 0.00 6.54 0.98 96 1010.6
20260506123816 51 190 2.0 3.0 0.00 6.54 0.98 96 1010.7
20260506123316 51 162 2.0 4.0 0.00 6.54 0.98 96 1010.6
20260506122816 51 103 3.0 4.0 0.00 6.54 0.98 96 1010.8
20260506122315 51 163 2.0 4.0 0.00 6.54 0.98 96 1010.7
20260506121830 52 95 2.0 4.0 0.04 6.54 0.98 96 1010.7
20260506121351 51 112 3.0 4.0 0.08 6.61 0.98 96 1010.8
20260506120830 51 191 0.0 3.0 0.20 6.61 0.98 96 1010.8
20260506120330 51 158 3.0 4.0 0.28 6.61 0.98 96 1010.8
20260506115831 51 125 2.0 4.0 0.39 6.61 0.98 96 1010.9
20260506115330 51 119 2.0 4.0 0.51 6.61 0.98 96 1010.9
20260506114830 51 146 2.0 3.0 0.67 6.61 0.98 96 1010.9
20260506114330 51 115 1.0 3.0 0.75 6.61 0.98 97 1010.9
20260506113829 50 180 1.0 2.0 0.94 6.61 0.98 96 1010.9
20260506113326 50 140 0.0 2.0 1.10 6.61 0.98 96 1010.9
20260506112828 50 140 0.0 2.0 1.50 6.61 0.98 95 1011.0
20260506112325 50 140 0.0 2.0 1.69 6.57 0.97 95 1011.0
20260506111827 50 173 0.0 2.0 2.40 6.57 0.97 95 1010.9
20260506111325 50 105 0.0 2.0 2.56 6.54 0.96 95 1010.9
20260506110824 50 119 1.0 4.0 2.48 6.42 0.94 95 1011.0
20260506110343 50 117 2.0 4.0 2.40 6.34 0.92 95 1011.0
20260506105822 50 279 1.0 3.0 2.36 6.22 0.90 95 1010.9
20260506105321 51 59 0.0 4.0 2.28 6.10 0.87 94 1011.0
20260506104820 51 59 3.0 4.0 2.24 5.94 0.84 94 1010.9
20260506104319 51 117 3.0 6.0 2.32 5.83 0.83 94 1010.9
20260506103819 51 263 0.0 6.0 2.17 5.63 0.78 93 1010.8
20260506103318 51 246 2.0 5.0 2.05 5.51 0.76 94 1010.9
20260506102844 50 302 3.0 9.0 1.65 5.08 0.67 93 1010.9
20260506102322 51 236 5.0 9.0 1.46 4.80 0.61 93 1011.1
20260506101819 51 257 6.0 8.0 0.83 4.13 0.48 92 1011.1
20260506101317 51 250 4.0 6.0 0.67 4.02 0.45 92 1011.0
20260506100815 51 235 2.0 3.0 0.63 3.98 0.44 93 1011.2
20260506100314 51 153 1.0 8.0 0.63 3.98 0.44 92 1011.0
20260506095833 50 234 4.0 8.0 0.55 3.90 0.43 91 1011.2
20260506095332 50 261 4.0 8.0 0.51 3.86 0.42 92 1011.2
20260506094832 50 250 5.0 9.0 0.39 3.74 0.39 91 1011.4
20260506094349 50 249 7.0 9.0 0.20 3.54 0.35 92 1011.2
20260506093827 51 239 5.0 7.0 0.20 3.50 0.35 92 1010.9
20260506093325 51 228 3.0 7.0 0.20 3.50 0.35 89 1010.9
20260506092826 51 261 4.0 7.0 0.20 3.46 0.34 89 1010.8
20260506092324 51 280 3.0 8.0 0.12 3.39 0.32 89 1011.0
20260506091844 51 267 5.0 8.0 0.08 3.35 0.31 87 1011.0
20260506091321 51 236 3.0 5.0 0.08 3.54 0.31 88 1010.8
20260506090820 51 267 2.0 6.0 0.08 3.54 0.31 88 1010.8
20260506090318 51 49 3.0 6.0 0.12 3.54 0.31 87 1010.8
20260506085816 50 342 4.0 6.0 0.20 3.54 0.31 88 1010.9
20260506085337 50 232 3.0 5.0 0.24 3.54 0.31 90 1010.8
20260506084837 50 217 2.0 4.0 0.24 3.54 0.31 91 1010.9
20260506084315 50 202 0.0 4.0 0.24 3.54 0.31 91 1010.9
20260506083815 50 257 3.0 4.0 0.20 3.50 0.31 91 1011.2
20260506083334 50 239 2.0 4.0 0.24 3.50 0.31 90 1011.1
20260506082833 50 20 1.0 4.0 0.20 3.46 0.30 91 1011.0
20260506082349 50 355 2.0 4.0 0.20 3.46 0.30 93 1011.1
20260506081828 50 344 2.0 4.0 0.24 3.46 0.30 93 1011.2
20260506081345 50 227 1.0 4.0 0.24 3.54 0.30 93 1011.2
20260506080843 50 26 2.0 6.0 0.20 3.50 0.29 93 1011.1
20260506080321 50 100 4.0 6.0 0.24 3.50 0.29 93 1011.2
20260506073318 51 355 1.0 4.0 0.08 3.35 0.26 96 1011.0
20260506072818 51 215 1.0 3.0 0.08 3.35 0.26 95 1011.1
20260506072317 51 279 2.0 3.0 0.08 3.35 0.26 95 1011.1
20260506071836 51 29 1.0 5.0 0.04 3.31 0.25 96 1011.0
20260506071335 51 92 2.0 5.0 0.04 3.31 0.25 96 1011.1
20260506070835 51 104 2.0 4.0 0.04 3.31 0.25 96 1011.2
20260506070315 51 131 2.0 3.0 0.04 3.27 0.24 96 1011.3
20260506062328 51 138 0.0 2.0 0.28 3.27 0.24 96 1011.4
20260506061827 51 138 1.0 3.0 0.31 3.27 0.24 96 1011.4
20260506061325 51 138 2.0 5.0 0.31 3.27 0.24 95 1011.6
20260506060818 51 144 2.0 5.0 0.39 3.27 0.24 96 1011.3
20260506060337 51 53 2.0 4.0 0.39 3.23 0.24 96 1011.3
20260506051325 51 239 2.0 3.0 0.79 2.91 0.17 95 1011.1
20260506050823 51 173 0.0 1.0 0.75 2.87 0.17 95 1011.0
20260506050323 52 182 0.0 3.0 0.75 2.83 0.16 95 1011.0
20260506044824 52 50 1.0 3.0 0.55 2.64 0.12 95 1011.5
20260506044323 52 81 0.0 2.0 0.47 2.56 0.10 95 1011.8
20260506043841 52 81 1.0 2.0 0.39 2.48 0.09 95 1011.8
20260506043319 52 81 1.0 2.0 0.28 2.36 0.06 95 1011.7
20260506042821 52 81 0.0 2.0 0.20 2.28 0.05 95 1011.6
20260506042320 52 81 0.0 2.0 0.12 2.20 0.03 95 1011.5
20260506041818 52 81 0.0 3.0 0.08 2.17 0.02 95 1011.4
20260506041317 52 81 2.0 3.0 0.04 2.13 0.02 95 1011.4
20260506040818 52 32 2.0 3.0 0.04 2.13 0.02 95 1011.2
20260506040332 52 41 0.0 3.0 0.00 2.09 0.01 95 1011.3
20260506035852 52 22 1.0 3.0 0.00 2.09 0.01 95 1011.2
20260506035351 52 344 1.0 3.0 0.00 2.09 0.01 95 1011.1
20260506034829 52 360 2.0 3.0 0.00 2.09 0.01 95 1011.1
20260506034329 52 212 2.0 4.0 0.00 2.09 0.01 96 1011.2
20260506033830 52 262 1.0 4.0 0.00 2.09 0.01 96 1011.1
20260506033329 52 253 3.0 4.0 0.00 2.09 0.01 96 1011.1
20260506032828 52 234 2.0 3.0 0.00 2.09 0.01 96 1011.2
20260506032328 51 253 2.0 2.0 0.00 2.09 0.01 96 1011.2
20260506031829 52 242 2.0 2.0 0.00 2.09 0.01 96 1011.3
20260506031329 52 122 1.0 3.0 0.00 2.09 0.01 96 1011.4
20260506030849 52 105 2.0 3.0 0.00 2.09 0.01 96 1011.4
20260506030325 52 273 1.0 2.0 0.00 2.09 0.01 96 1011.5
20260506025824 52 242 1.0 2.0 0.00 2.09 0.01 96 1011.7
20260506025322 52 29 1.0 2.0 0.00 2.09 0.01 96 1012.0
20260506024820 52 83 1.0 3.0 0.00 2.09 0.01 96 1012.0
20260506024321 52 90 2.0 3.0 0.00 2.09 0.01 96 1012.0
20260506023821 52 20 2.0 3.0 0.00 2.09 0.01 96 1012.1
20260506023321 52 150 1.0 5.0 0.00 2.09 0.01 96 1012.1
20260506022819 52 306 2.0 5.0 0.00 2.09 0.01 96 1012.0
20260506022346 52 265 4.0 6.0 0.00 2.09 0.01 96 1012.2
20260506021824 52 232 2.0 3.0 0.00 2.09 0.01 96 1012.1
20260506021321 52 308 1.0 2.0 0.00 2.09 0.01 96 1012.2
20260506020843 52 29 1.0 3.0 0.00 2.09 0.01 96 1012.3
20260506020322 52 40 2.0 3.0 0.00 2.09 0.01 96 1012.3
20260506015819 52 164 1.0 3.0 0.00 2.09 0.01 96 1012.3
20260506015321 52 298 1.0 3.0 0.00 2.09 0.01 96 1012.4
20260506014821 52 295 2.0 3.0 0.00 2.09 0.01 96 1012.4
20260506014321 52 138 1.0 3.0 0.00 2.09 0.01 96 1012.4
20260506013821 52 76 0.0 2.0 0.00 2.09 0.01 96 1012.3
20260506013342 52 83 1.0 2.0 0.00 2.09 0.01 96 1012.3
20260506012838 52 37 1.0 2.0 0.00 2.09 0.01 96 1012.2
20260506012338 52 37 0.0 3.0 0.00 2.09 0.01 96 1012.3
20260506011836 52 232 1.0 3.0 0.00 2.09 0.01 96 1012.3
20260506011334 52 232 0.0 3.0 0.00 2.09 0.01 96 1012.3
20260506010834 51 300 2.0 4.0 0.00 2.09 0.01 96 1012.3
20260506010332 51 266 3.0 4.0 0.00 2.09 0.01 96 1012.4
20260506005832 51 250 3.0 4.0 0.04 2.09 0.01 96 1012.5